Hourly Data Report for October 07, 2016

All times are specified in Local Standard Time (LST). Add 1 hour to adjust for Daylight Saving Time where and when it is observed.

PETAWAWA AWOS 2
ONTARIO

45°57'00.000" N
77°19'00.000" W
130.10 m
6106396
71625
YWA

Download Data

Hourly Data (October 2016)
Hourly Data Report for October 7, 2016
Temp Definition
°C
Dew Point Temp Definition
°C
Rel Hum Definition
%
Wind Dir Definition
10's deg

Wind Spd Definition
km/h
Visibility Definition
km
Stn Press Definition
kPa
Hmdx Definition


Wind Chill Definition


Weather Definition


TIME
00:00 16.0 15.7 98 13 7 14.5 100.82     LegendNANA
01:00 15.8 15.5 98 13 7 12.9 100.83     LegendNANA
02:00 15.5 15.2 98 13 13 14.5 100.82     LegendNANA
03:00 15.1 15.0 99 13 6 9.7 100.79     LegendNANA
04:00 14.9 14.9 100 13 9 9.7 100.79     LegendNANA
05:00 14.2 14.2 100 14 9 9.7 100.80     LegendNANA
06:00 14.1 14.1 100 14 4 8.0 100.81     LegendNANA
07:00 13.9 13.9 100 14 9 8.0 100.77     LegendNANA
08:00 14.0 13.8 99 13 13 12.9 100.75     LegendNANA
09:00 16.0 13.7 86 12 15 14.5 100.71     LegendNANA
10:00 17.1 13.8 81 12 13 14.5 100.67     LegendNANA
11:00 19.2 14.8 76 12 13 14.5 100.57     LegendNANA
12:00 20.8 15.0 69 13 15 14.5 100.46 25   LegendNANA
13:00 22.9 15.7 64 12 15 14.5 100.35 27   LegendNANA
14:00 23.2 14.4 58 13 17 14.5 100.26 27   LegendNANA
15:00 23.7 12.8 50 13 17 14.5 100.17 26   LegendNANA
16:00 24.2 11.1 44 16 13 14.5 100.09 26   LegendNANA
17:00 22.6 11.4 49 16 13 14.5 100.10 25   LegendNANA
18:00 20.5 11.7 57 15 11 14.5 100.08     LegendNANA
19:00 19.3 12.5 65 15 9 14.5 100.08     LegendNANA
20:00 18.1 12.8 71 14 9 14.5 100.11     LegendNANA
21:00 16.6 13.0 79 12 6 14.5 100.09     LegendNANA
22:00 16.7 14.4 86 10 19 14.5 99.99     LegendNANA
23:00 15.7 14.4 92 16 6 14.5 99.92     LegendNANA

Notes on Data Quality.

Legend

  • E = Estimated
  • M = Missing
  • NA = Not Available
  • ‡ = Partner data that is not subject to review by the National Climate Archives
Date modified: